Regional Weather Roundup
Issued by NWS Cleveland, OH

Home | Current Version | Previous Version | Graphics & Text | Print | Product List | Glossary On
Versions: 1 2 3 4 5 6 7 8 9 10 11 12 13 14 15 16 17 18 19 20 21 22 23 24 25 26 27 28 29 30 31 32 33 34 35 36 37 38 39 40 41 42 43 44 45 46 47 48 49 50
000
ASUS41 KCLE 240410
RWRCLE
OHIO REGIONAL WEATHER ROUNDUP
NATIONAL WEATHER SERVICE CLEVELAND, OH
1200 AM EDT TUE MAY 24 2016

NOTE: "FAIR" INDICATES FEW OR NO CLOUDS BELOW 12,000 FEET WITH NO
SIGNIFICANT WEATHER AND/OR OBSTRUCTIONS TO VISIBILITY.

OHZ001>008-015>018-024>027-034-035-043-044-240500-
   NORTHWEST OHIO

CITY           SKY/WX    TMP DP  RH WIND       PRES   REMARKS
DEFIANCE       CLEAR     57  47  69 CALM      30.01F
FINDLAY        CLEAR     60  46  59 E5        30.02S
TOLEDO EXPRESS CLEAR     54  49  83 CALM      30.01F
TOLEDO EXEC    CLEAR     60  48  64 SE5       30.03S
LIMA           CLEAR     58  48  69 CALM      30.03S
$$

OHZ009>014-019>023-028>033-038-089-240500-
   NORTHEAST OHIO

CITY           SKY/WX    TMP DP  RH WIND       PRES   REMARKS
CLE-HOPKINS    CLEAR     59  47  64 CALM      30.05S
CLE-LAKEFRONT  CLEAR     62  49  62 S5        30.01F
CUY CO. ARPT   NOT AVBL
LORAIN-ELYRIA  CLEAR     55  48  77 CALM      30.04S
ASHTABULA      CLEAR     50  47  89 CALM      30.03S
AKRON-CANTON   CLEAR     58  46  64 NE3       30.04S
WOOSTER        CLEAR     52  49  89 CALM      30.04F
MANSFIELD      CLEAR     58  49  72 CALM      30.05S
YOUNGSTOWN     CLEAR     53  47  79 CALM      30.03F
$$

OHZ042-051>053-060>062-070>072-077>081-240500-
  SOUTHWEST OHIO

CITY           SKY/WX    TMP DP  RH WIND       PRES   REMARKS
CINC-COVINGTON CLEAR     55  51  86 S5        30.05R
CINC-LUNKEN    CLEAR     56  54  93 CALM      30.05R
HAMILTON       CLEAR     54  52  93 CALM      30.05R
DAYTON         CLEAR     65  46  50 SW6       30.05S
WRIGHT-PAT AFB CLEAR     60  51  71 CALM      30.03F
DAYTON GENERAL CLEAR     63  45  51 S3        30.03F
WILMINGTON     CLEAR     57  51  80 CALM      30.04F
$$

OHZ036-037-039>041-045>050-054>059-063>069-073>076-082>088-240500-
  CENTRAL AND SOUTHEAST OHIO

CITY           SKY/WX    TMP DP  RH WIND       PRES   REMARKS
COLUMBUS       CLEAR     61  52  72 CALM      30.03S
OSU AIRPORT    NOT AVBL
BOLTON FIELD   CLEAR     58  51  78 SW3       30.04F
RICKENBACK AFB CLEAR     58  51  77 CALM      30.03F
NEWARK         CLEAR     55  51  86 CALM      30.04R
MARION         CLEAR     59  50  72 CALM      30.04S
LANCASTER      CLEAR     54  50  86 CALM      30.05R
ZANESVILLE     CLEAR     60  53  77 CALM      30.03S
NEW PHILLY     CLEAR     59  52  77 CALM      30.04S
$$



USA.gov is the U.S. government's official web portal to all federal, state and local government web resources and services.